{"data":{"norad_id":69289,"epoch":"2026-09-20T04:12:37.615968Z","epoch_age_seconds":58870,"freshness":"FRESH","line1":"1 69289U 26118Y   26263.17543537  .00001858  00000+0  27266-3 0  9993","line2":"2 69289  51.9028 335.6304 0000331  87.3727 272.7273 14.79927733 18298","mean_motion":14.79927733,"eccentricity":3.31e-5,"inclination_deg":51.9028,"raan_deg":335.6304,"arg_perigee_deg":87.3727,"mean_anomaly_deg":272.7273,"bstar":0.00027266,"rev_number":1829,"period_min":97.302048464281,"perigee_km":629.32030132377,"apogee_km":629.78421035251,"semimajor_km":7007.6892558381,"source":"CELESTRAK","updated_at":"2026-09-20T09:00:24.782695Z"}}